Marietta, GA

11:48 AM EDT on May 24, 2017 (GMT -0400)
Dobbins Air Force Base

Weather History for KMGE - May, 2013

Change the Weather History Date:

Monday, May 20, 2013

  Actual Average Record
Temperature  
Mean Temperature 72 °F -  
Max Temperature 84 °F 77 °F 87 °F (1998)
Min Temperature 60 °F 59 °F 46 °F (2002)
Cooling Degree Days 6    
Growing Degree Days 22 (Base 50)    
Moisture  
Dew Point 65 °F    
Average Humidity 94    
Maximum Humidity 100    
Minimum Humidity 56    
Precipitation  
Precipitation 0.01 in - - ()
Sea Level Pressure  
Sea Level Pressure 30.07 in    
Wind  
Wind Speed 2 mph (ENE)    
Max Wind Speed 7 mph    
Max Gust Speed -    
Visibility 5 miles    
Events Fog    
Averages and records for this station are not official NWS values.
T = Trace of Precipitation, MM = Missing Value Source: NWS Daily Summary

Daily Weather History Graph

Daily Weather History Graph

Search for Another Location

Airport or City:

Trip Planner

Search our weather history database for the weather conditions in past years. The results will help you decide how hot, cold, wet, or windy it might be!

Date:

Astronomy

May. 20, 2013 Rise Set
Actual Time 6:33 AM EDT 8:36 PM EDT
Civil Twilight 6:05 AM EDT 9:04 PM EDT
Nautical Twilight 5:31 AM EDT 9:38 PM EDT
Astronomical Twilight 4:54 AM EDT 10:15 PM EDT
Moon 3:55 PM EDT (5/20) 3:13 AM EDT (5/20)
Length of Visible Light 14h 58m
Length of Day
14h 02m
Waxing Gibbous, 75% of the Moon is Illuminated
May 20
Waxing Gibbous
May 25
Full
May 31
Last Quarter
Jun 8
New
Jun 16
First Quarter

Hourly Weather History & Observations

Time (EDT) Temp. Heat Index Dew Point Humidity Pressure Visibility Wind Dir Wind Speed Gust Speed Precip Events Conditions
12:18 AM 62.6 °F - 62.6 °F 100% 30.07 in 3.0 mi NE 2.3 mph - N/A   Clear
12:23 AM 62.6 °F - 62.6 °F 100% 30.07 in 2.5 mi NNE 2.3 mph - N/A   Clear
12:28 AM 62.6 °F - 62.6 °F 100% 30.08 in 5.0 mi North 2.3 mph - N/A   Clear
12:33 AM 60.8 °F - 60.8 °F 100% 30.08 in 10.0 mi ENE 2.3 mph - N/A   Clear
12:48 AM 60.8 °F - 60.8 °F 100% 30.08 in 4.0 mi Variable 2.3 mph - N/A   Clear
12:58 AM 61.9 °F - 61.9 °F 100% 30.07 in 9.0 mi Calm Calm - N/A   Clear
1:16 AM 62.6 °F - 62.6 °F 100% 30.08 in 9.0 mi Variable 2.3 mph - N/A   Partly Cloudy
1:21 AM 60.8 °F - 60.8 °F 100% 30.08 in 4.0 mi East 3.5 mph - N/A   Scattered Clouds
1:26 AM 60.8 °F - 60.8 °F 100% 30.07 in 1.5 mi East 3.5 mph - N/A   Mostly Cloudy
1:31 AM 60.8 °F - 60.8 °F 100% 30.07 in 0.8 mi East 2.3 mph - N/A   Mist
1:36 AM 60.8 °F - 60.8 °F 100% 30.07 in 0.5 mi East 2.3 mph - N/A Fog Fog
1:41 AM 62.6 °F - 62.6 °F 100% 30.07 in 0.2 mi Calm Calm - N/A Fog Fog
1:58 AM 62.2 °F - 62.2 °F 100% 30.06 in 0.2 mi North 1.2 mph - N/A Fog Fog
2:08 AM 62.6 °F - 62.6 °F 100% 30.07 in 0.5 mi North 1.2 mph - N/A Fog Fog
2:58 AM 62.6 °F - 62.6 °F 100% 30.06 in 0.2 mi Calm Calm - 0.01 in Fog Fog
3:23 AM 62.6 °F - 62.6 °F 100% 30.07 in 0.5 mi ENE 3.5 mph - N/A Fog Fog
3:48 AM 62.6 °F - 62.6 °F 100% 30.07 in 0.8 mi ENE 3.5 mph - N/A   Mist
3:58 AM 63.5 °F - 63.5 °F 100% 30.06 in 0.8 mi Calm Calm - N/A   Mist
4:03 AM 64.4 °F - 64.4 °F 100% 30.07 in 1.0 mi Calm Calm - N/A   Mist
4:13 AM 64.4 °F - 64.4 °F 100% 30.07 in 1.2 mi East 1.2 mph - N/A   Overcast
4:18 AM 64.4 °F - 64.4 °F 100% 30.07 in 1.2 mi Calm Calm - N/A   Overcast
4:23 AM 64.4 °F - 64.4 °F 100% 30.07 in 1.5 mi NE 1.2 mph - N/A   Overcast
4:33 AM 64.4 °F - 64.4 °F 100% 30.07 in 2.0 mi Calm Calm - N/A   Overcast
4:38 AM 64.4 °F - 64.4 °F 100% 30.07 in 2.5 mi ENE 2.3 mph - N/A   Overcast
4:43 AM 64.4 °F - 64.4 °F 100% 30.07 in 3.0 mi NE 2.3 mph - N/A   Overcast
4:48 AM 64.4 °F - 64.4 °F 100% 30.07 in 3.0 mi ENE 2.3 mph - N/A   Overcast
4:58 AM 64.2 °F - 64.2 °F 100% 30.06 in 4.0 mi ENE 1.2 mph - N/A   Overcast
5:03 AM 64.4 °F - 64.4 °F 100% 30.07 in 5.0 mi Variable 1.2 mph - N/A   Overcast
5:08 AM 64.4 °F - 64.4 °F 100% 30.07 in 5.0 mi NE 2.3 mph - N/A   Overcast
5:13 AM 64.4 °F - 64.4 °F 100% 30.07 in 5.0 mi NE 2.3 mph - N/A   Overcast
5:18 AM 64.4 °F - 64.4 °F 100% 30.07 in 5.0 mi NE 2.3 mph - N/A   Overcast
5:28 AM 64.4 °F - 64.4 °F 100% 30.07 in 5.0 mi NE 2.3 mph - N/A   Overcast
5:38 AM 64.4 °F - 64.4 °F 100% 30.07 in 5.0 mi ENE 1.2 mph - N/A   Overcast
5:48 AM 64.4 °F - 64.4 °F 100% 30.07 in 5.0 mi ENE 2.3 mph - N/A   Overcast
5:53 AM 64.4 °F - 64.4 °F 100% 30.07 in 5.0 mi ENE 2.3 mph - N/A   Overcast
5:58 AM 64.6 °F - 64.6 °F 100% 30.06 in 5.0 mi ENE 2.3 mph - N/A   Overcast
6:03 AM 64.4 °F - 64.4 °F 100% 30.07 in 5.0 mi NE 2.3 mph - N/A   Overcast
6:13 AM 64.4 °F - 64.4 °F 100% 30.07 in 6.0 mi NE 3.5 mph - N/A   Overcast
6:18 AM 64.4 °F - 64.4 °F 100% 30.07 in 7.0 mi NNE 1.2 mph - N/A   Overcast
6:28 AM 64.4 °F - 64.4 °F 100% 30.08 in 8.0 mi NNE 3.5 mph - N/A   Overcast
6:38 AM 64.4 °F - 64.4 °F 100% 30.08 in 7.0 mi Variable 2.3 mph - N/A   Overcast
6:58 AM 64.4 °F - 64.4 °F 100% 30.07 in 3.0 mi Calm Calm - N/A   Mostly Cloudy
7:08 AM 64.4 °F - 64.4 °F 100% 30.09 in 3.0 mi Calm Calm - N/A   Mostly Cloudy
7:58 AM 66.0 °F - 66.0 °F 100% 30.10 in 3.0 mi NE 2.3 mph - N/A   Scattered Clouds
8:36 AM 66.2 °F - 66.2 °F 100% 30.11 in 3.0 mi East 4.6 mph - N/A   Mostly Cloudy
8:58 AM 65.7 °F - 65.7 °F 100% 30.11 in 3.0 mi East 3.5 mph - N/A   Overcast
9:33 AM 66.2 °F - 66.2 °F 100% 30.14 in 4.0 mi SE 3.5 mph - N/A   Overcast
9:58 AM 66.9 °F - 66.9 °F 100% 30.13 in 4.0 mi Variable 1.2 mph - N/A   Overcast
10:17 AM 68.0 °F - 68.0 °F 100% 30.13 in 5.0 mi Variable 1.2 mph - N/A   Mostly Cloudy
10:28 AM 69.8 °F - 69.8 °F 100% 30.13 in 6.0 mi Calm Calm - N/A   Scattered Clouds
10:58 AM 71.6 °F - 71.6 °F 100% 30.12 in 7.0 mi Calm Calm - N/A   Partly Cloudy
11:58 AM 75.6 °F - 68.5 °F 79% 30.12 in 10.0 mi Variable 2.3 mph - N/A   Partly Cloudy
12:58 PM 78.8 °F - 69.3 °F 72% 30.12 in 10.0 mi SW 5.8 mph - N/A   Mostly Cloudy
1:58 PM 80.8 °F 84.1 °F 69.6 °F 69% 30.09 in 10.0 mi SSW 5.8 mph - N/A   Mostly Cloudy
2:58 PM 81.5 °F 84.6 °F 68.9 °F 65% 30.07 in 10.0 mi West 4.6 mph - N/A   Mostly Cloudy
3:58 PM 81.7 °F 84.5 °F 68.2 °F 63% 30.06 in 10.0 mi Variable 3.5 mph - N/A   Mostly Cloudy
4:58 PM 83.5 °F 86.4 °F 67.6 °F 59% 30.03 in 10.0 mi SW 6.9 mph - N/A   Scattered Clouds
5:58 PM 83.1 °F 86.1 °F 67.8 °F 60% 30.03 in 10.0 mi SW 4.6 mph - N/A   Scattered Clouds
6:58 PM 82.9 °F 85.0 °F 66.0 °F 56% 30.02 in 10.0 mi SW 5.8 mph - N/A   Partly Cloudy
7:58 PM 81.1 °F 83.1 °F 65.7 °F 59% 30.03 in 10.0 mi South 3.5 mph - N/A   Partly Cloudy
8:58 PM 77.0 °F - 67.8 °F 73% 30.02 in 10.0 mi SSW 3.5 mph - N/A   Partly Cloudy
9:58 PM 76.1 °F - 67.3 °F 74% 30.02 in 10.0 mi Variable 2.3 mph - N/A   Partly Cloudy
10:58 PM 74.1 °F - 67.6 °F 80% 30.03 in 10.0 mi Calm Calm - N/A   Clear
11:58 PM 70.7 °F - 67.6 °F 90% 30.03 in 10.0 mi Calm Calm - N/A   Clear